Regional Weather Roundup
Issued by NWS Newport/Morehead, NC

Current Version | Previous Version | Graphics & Text | Print | Product List | Glossary Off
Versions: 1 2 3 4 5 6 7 8 9 10 11 12 13 14 15 16 17 18 19 20 21 22 23 24 25 26 27 28 29 30 31 32 33 34 35 36 37 38 39 40 41 42 43 44 45 46 47 48 49 50

000
ASUS42 KMHX 021313
RWRMHX
WEATHER ROUNDUP FOR EASTERN NORTH CAROLINA
NATIONAL WEATHER SERVICE NEWPORT/MOREHEAD CITY NC
900 AM EDT SUN AUG 02 2015

NOTE: "FAIR" INDICATES FEW OR NO CLOUDS BELOW 12,000 FEET
WITH NO SIGNIFICANT WEATHER AND/OR OBSTRUCTIONS TO VISIBILITY

NCZ015>017-031-032-045>047-102-103-021400-
NORTH COAST

CITY           SKY/WX    TMP DP  RH WIND       PRES   REMARKS
EDENTON          N/A     77  68  73 CALM      29.93R
ELIZABETH CITY MOSUNNY   81  71  71 N3        29.92R
KITTY HAWK     SUNNY     85  72  65 NW3       29.91R
MANTEO         SUNNY     82  73  75 NW7       29.92S

$$

NCZ045>047-081-094-103-104-021400-
CENTRAL COAST

CITY           SKY/WX    TMP DP  RH WIND       PRES   REMARKS
FRISCO         SUNNY     82  74  76 VRB3      29.94R
SWANQUARTER      N/A     82 N/A N/A N1        29.88S

$$

NCZ095-097-098-100-101-021400-
SOUTHERN COAST

CITY           SKY/WX    TMP DP  RH WIND       PRES   REMARKS
BEAUFORT       SUNNY     81  75  82 NW6       29.93R
CEDAR ISLAND     N/A     81 N/A N/A NW3       29.97S
JACKSONVILLE   SUNNY     81  73  76 NW5       29.93R
PINEY ISLAND   SUNNY    N/A N/A N/A NW5       29.93R
WILMINGTON     MOSUNNY   80  74  81 W6        29.94R


$$

NCZ011>013-027>030-043-044-078>080-089-090>093-098-021400-
COASTAL PLAIN

CITY           SKY/WX    TMP DP  RH WIND       PRES   REMARKS
AHOSKIE        SUNNY     75  65  70 N6        29.94S
CLINTON        SUNNY     78  66  66 N6        29.95S
ELIZABETHTOWN  SUNNY     79  69  70 CALM      29.95R
GOLDSBORO      SUNNY     78  65  64 NE8       29.93R
GREENVILLE     SUNNY     77  68  73 N5        29.96R
HAVELOCK       SUNNY     82  75  79 NW5       29.94R
KENANSVILLE    SUNNY     78  69  74 N5        29.95S
KINSTON        SUNNY     77  68  73 CALM      29.95R
NEW BERN       SUNNY     80  73  79 NW5       29.94R
RICHLANDS      SUNNY     81  70  69 NW3       29.94R
ROCKY MOUNT    SUNNY     80  62  54 N8        29.95R
WASHINGTON     MOSUNNY   76  69  80 CALM      29.94R
WHITEVILLE     SUNNY     79  73  80 CALM      29.95R

$$

AMZ130-135-150-152-154-156-158-170-250-252-270-ANZ085-086-088-633-658-670-021400-
MARINE OBSERVATIONS

STATION/POSITION TIME  TEMP    WIND        PRES    WAVE   SWELL
                       AIR SEA DIR/SP/G            HT/PER HT/PER
                 (UTC) (F)     (DEG/KT/KT) (MB)    (FT/S) (FT/S)
CHESAPEAKE LIGHT 1200   82     300/  6/  6 1013.3
64 E VA BEACH    1250   81 81  290/  6/  8 1012.4    3/ 8   3/ 8
DUCK             1200   79 75  300/  6/  8 1011.9
2 E DUCK         1211      78                N/A     1/12
OREGON INLET     1200   79 81  300/  5/  7 1012.6
13E OREGON INLT  1300      81                N/A     2/12   2/12
HATTERAS CG      1200   81 81  300/ 12/ 14 1012.8
DIAMOND BUOY     1250   81 85  300/  8/ 12 1013.8    3/ 7   3/ 7
CAPE LOOKOUT     1300   82     310/  5/  6 1013.3
BEAUFORT LAB     1200   80 82  300/  5/  8 1012.5
30 SE NEW RVR IN NOT AVBL
27 SE WRIGHTSVLE 1200   78 82  300/  6/  8   N/A
5 SE WRIGHTSVLE  1208   80 83  290/  8/ 10 1013.4
225 S CAPE HAT   1250   83 81  220/ 14/ 17 1015.9    6/ 7   3/ 8
41 SE CHARLESTON 1250   80 84  270/ 10/ 12 1013.4    4/ 7   3/ 7

$$


USA.gov is the U.S. government's official web portal to all federal, state and local government web resources and services.